Time,TemperatureF,DewpointF,PressureIn,WindDirection,WindDirectionDegrees,WindSpeedMPH,WindSpeedGustMPH,Humidity,HourlyPrecipIn,Conditions,Clouds,dailyrainin,SoftwareType,DateUTC
2013-10-23 00:14:00,45.0,38.0,29.66,NE,56,0.0,3.0,77,0.00,,,0.00,,2013-10-23 04:14:00,
2013-10-23 00:24:00,45.0,37.0,29.67,North,5,0.0,2.0,74,0.00,,,0.00,,2013-10-23 04:24:00,
2013-10-23 00:45:00,45.0,37.0,29.67,NNW,348,0.0,2.0,74,0.00,,,0.00,,2013-10-23 04:45:00,
2013-10-23 00:54:00,44.0,37.0,29.67,NNW,348,0.0,0.0,75,0.00,,,0.00,,2013-10-23 04:54:00,
2013-10-23 01:13:00,44.0,36.0,29.67,NNW,348,0.0,1.0,74,0.00,,,0.00,,2013-10-23 05:13:00,
2013-10-23 01:23:00,44.0,37.0,29.67,East,83,0.0,2.0,75,0.00,,,0.00,,2013-10-23 05:23:00,
2013-10-23 01:43:00,43.0,36.0,29.67,East,83,0.0,1.0,77,0.00,,,0.00,,2013-10-23 05:43:00,
2013-10-23 01:52:00,42.0,36.0,29.67,East,83,0.0,2.0,79,0.00,,,0.00,,2013-10-23 05:52:00,
2013-10-23 02:13:00,42.0,37.0,29.67,East,83,0.0,1.0,81,0.00,,,0.00,,2013-10-23 06:13:00,
2013-10-23 02:22:00,41.0,36.0,29.67,East,83,0.0,1.0,82,0.00,,,0.00,,2013-10-23 06:22:00,
2013-10-23 02:42:00,41.0,36.0,29.68,East,83,0.0,1.0,82,0.00,,,0.00,,2013-10-23 06:42:00,
2013-10-23 02:52:00,41.0,36.0,29.68,East,83,0.0,0.0,83,0.00,,,0.00,,2013-10-23 06:52:00,
2013-10-23 03:12:00,40.0,36.0,29.68,East,83,0.0,0.0,84,0.00,,,0.00,,2013-10-23 07:12:00,
2013-10-23 03:22:00,40.0,36.0,29.68,East,83,0.0,0.0,85,0.00,,,0.00,,2013-10-23 07:22:00,
2013-10-23 03:42:00,40.0,36.0,29.68,East,83,0.0,0.0,85,0.00,,,0.00,,2013-10-23 07:42:00,
2013-10-23 03:52:00,39.0,35.0,29.67,East,83,0.0,1.0,86,0.00,,,0.00,,2013-10-23 07:52:00,
2013-10-23 04:12:00,39.0,35.0,29.67,East,83,0.0,0.0,86,0.00,,,0.00,,2013-10-23 08:12:00,
2013-10-23 04:22:00,38.0,35.0,29.67,East,83,0.0,0.0,88,0.00,,,0.00,,2013-10-23 08:22:00,
2013-10-23 04:42:00,37.0,34.0,29.67,East,83,0.0,0.0,89,0.00,,,0.00,,2013-10-23 08:42:00,
2013-10-23 04:52:00,37.0,34.0,29.67,East,83,0.0,0.0,90,0.00,,,0.00,,2013-10-23 08:52:00,
2013-10-23 05:12:00,36.0,33.0,29.66,East,83,0.0,0.0,90,0.00,,,0.00,,2013-10-23 09:12:00,
2013-10-23 05:22:00,36.0,33.0,29.65,East,83,0.0,0.0,90,0.00,,,0.00,,2013-10-23 09:22:00,
2013-10-23 05:43:00,36.0,34.0,29.66,East,83,0.0,2.0,92,0.00,,,0.00,,2013-10-23 09:43:00,
2013-10-23 05:53:00,36.0,34.0,29.66,East,83,0.0,0.0,92,0.00,,,0.00,,2013-10-23 09:53:00,
2013-10-23 06:13:00,35.0,33.0,29.65,East,83,0.0,0.0,92,0.00,,,0.00,,2013-10-23 10:13:00,
2013-10-23 06:23:00,35.0,33.0,29.66,East,83,0.0,1.0,92,0.00,,,0.00,,2013-10-23 10:23:00,
2013-10-23 06:43:00,35.0,33.0,29.65,East,83,0.0,0.0,92,0.00,,,0.00,,2013-10-23 10:43:00,
2013-10-23 06:53:00,34.0,32.0,29.65,East,83,0.0,0.0,92,0.00,,,0.00,,2013-10-23 10:53:00,
2013-10-23 07:12:00,34.0,32.0,29.65,East,83,0.0,0.0,92,0.00,,,0.00,,2013-10-23 11:12:00,
2013-10-23 07:22:00,33.0,31.0,29.65,East,83,0.0,0.0,93,0.00,,,0.00,,2013-10-23 11:22:00,
2013-10-23 07:42:00,33.0,31.0,29.65,East,83,0.0,0.0,93,0.00,,,0.00,,2013-10-23 11:42:00,
2013-10-23 07:52:00,33.0,31.0,29.65,East,83,0.0,0.0,94,0.00,,,0.00,,2013-10-23 11:52:00,
2013-10-23 08:12:00,33.0,31.0,29.65,East,83,0.0,1.0,94,0.00,,,0.00,,2013-10-23 12:12:00,
2013-10-23 08:22:00,34.0,32.0,29.66,East,83,0.0,0.0,94,0.00,,,0.00,,2013-10-23 12:22:00,
2013-10-23 08:42:00,34.0,33.0,29.66,East,83,0.0,0.0,95,0.00,,,0.00,,2013-10-23 12:42:00,
2013-10-23 08:52:00,34.0,33.0,29.66,East,83,0.0,0.0,95,0.00,,,0.00,,2013-10-23 12:52:00,
2013-10-23 09:12:00,35.0,34.0,29.66,East,83,0.0,1.0,96,0.00,,,0.00,,2013-10-23 13:12:00,
2013-10-23 09:22:00,36.0,35.0,29.65,East,83,0.0,0.0,95,0.00,,,0.00,,2013-10-23 13:22:00,
2013-10-23 09:42:00,37.0,36.0,29.65,East,83,0.0,2.0,95,0.00,,,0.00,,2013-10-23 13:42:00,
2013-10-23 09:52:00,38.0,36.0,29.65,East,83,0.0,1.0,94,0.00,,,0.00,,2013-10-23 13:52:00,
2013-10-23 10:11:00,40.0,37.0,29.65,SE,142,1.0,3.0,90,0.00,,,0.00,,2013-10-23 14:11:00,
2013-10-23 10:22:00,42.0,39.0,29.65,SE,132,0.0,0.0,89,0.00,,,0.00,,2013-10-23 14:22:00,
2013-10-23 10:42:00,44.0,37.0,29.64,SE,135,1.0,3.0,77,0.00,,,0.00,,2013-10-23 14:42:00,
2013-10-23 10:52:00,48.0,38.0,29.63,West,269,0.0,4.0,68,0.00,,,0.00,,2013-10-23 14:52:00,
2013-10-23 11:11:00,52.0,38.0,29.63,WNW,288,1.0,4.0,59,0.00,,,0.00,,2013-10-23 15:11:00,
2013-10-23 11:22:00,54.0,36.0,29.62,ENE,75,1.0,3.0,51,0.00,,,0.00,,2013-10-23 15:22:00,
2013-10-23 11:43:00,55.0,37.0,29.62,ESE,106,0.0,4.0,50,0.00,,,0.00,,2013-10-23 15:43:00,
2013-10-23 11:53:00,55.0,38.0,29.61,East,94,0.0,1.0,52,0.00,,,0.00,,2013-10-23 15:53:00,
2013-10-23 12:12:00,54.0,36.0,29.61,WSW,252,0.0,3.0,50,0.00,,,0.00,,2013-10-23 16:12:00,
2013-10-23 12:23:00,54.0,37.0,29.60,West,274,0.0,3.0,53,0.00,,,0.00,,2013-10-23 16:23:00,
2013-10-23 12:43:00,54.0,38.0,29.59,NNW,341,1.0,3.0,54,0.00,,,0.00,,2013-10-23 16:43:00,
2013-10-23 12:53:00,54.0,35.0,29.58,SE,139,1.0,3.0,49,0.00,,,0.00,,2013-10-23 16:53:00,
2013-10-23 13:12:00,53.0,35.0,29.57,SSE,167,1.0,4.0,50,0.00,,,0.00,,2013-10-23 17:12:00,
2013-10-23 13:23:00,53.0,35.0,29.58,ESE,122,0.0,5.0,51,0.00,,,0.00,,2013-10-23 17:23:00,
2013-10-23 13:44:00,53.0,36.0,29.57,SW,221,0.0,2.0,52,0.00,,,0.00,,2013-10-23 17:44:00,
2013-10-23 13:52:00,53.0,34.0,29.56,SE,131,1.0,3.0,49,0.00,,,0.00,,2013-10-23 17:52:00,
2013-10-23 14:12:00,53.0,36.0,29.54,SSW,204,0.0,3.0,52,0.00,,,0.00,,2013-10-23 18:12:00,
2013-10-23 14:22:00,53.0,36.0,29.52,WNW,295,0.0,1.0,52,0.00,,,0.00,,2013-10-23 18:22:00,
2013-10-23 14:42:00,53.0,35.0,29.52,SSE,157,1.0,3.0,51,0.00,,,0.00,,2013-10-23 18:42:00,
2013-10-23 14:51:00,53.0,35.0,29.51,SSW,192,0.0,3.0,51,0.00,,,0.00,,2013-10-23 18:51:00,
2013-10-23 15:12:00,53.0,35.0,29.50,SSE,159,1.0,3.0,50,0.00,,,0.00,,2013-10-23 19:12:00,
2013-10-23 15:22:00,53.0,36.0,29.49,SSE,164,0.0,1.0,52,0.00,,,0.00,,2013-10-23 19:22:00,
2013-10-23 15:42:00,53.0,36.0,29.48,SSE,167,0.0,2.0,53,0.00,,,0.00,,2013-10-23 19:42:00,
2013-10-23 15:53:00,53.0,36.0,29.49,SSW,205,0.0,2.0,52,0.00,,,0.00,,2013-10-23 19:53:00,
2013-10-23 16:12:00,53.0,36.0,29.49,SSE,150,0.0,3.0,52,0.00,,,0.00,,2013-10-23 20:12:00,
2013-10-23 16:22:00,53.0,35.0,29.49,SSE,159,0.0,3.0,51,0.00,,,0.00,,2013-10-23 20:22:00,
2013-10-23 16:42:00,53.0,36.0,29.49,SSE,159,0.0,2.0,53,0.00,,,0.00,,2013-10-23 20:42:00,
2013-10-23 16:52:00,52.0,36.0,29.49,South,175,0.0,2.0,54,0.00,,,0.00,,2013-10-23 20:52:00,
2013-10-23 17:12:00,52.0,37.0,29.49,SSE,148,0.0,3.0,57,0.00,,,0.00,,2013-10-23 21:12:00,
2013-10-23 17:22:00,52.0,40.0,29.48,South,180,0.0,1.0,63,0.00,,,0.00,,2013-10-23 21:22:00,
2013-10-23 17:43:00,51.0,39.0,29.48,South,180,0.0,0.0,64,0.00,,,0.00,,2013-10-23 21:43:00,
2013-10-23 17:54:00,51.0,39.0,29.49,South,180,0.0,1.0,64,0.00,,,0.00,,2013-10-23 21:54:00,
2013-10-23 18:13:00,50.0,39.0,29.50,South,180,0.0,1.0,66,0.00,,,0.00,,2013-10-23 22:13:00,
2013-10-23 18:24:00,50.0,39.0,29.50,South,180,0.0,0.0,65,0.00,,,0.00,,2013-10-23 22:24:00,
2013-10-23 18:43:00,49.0,37.0,29.50,South,180,0.0,0.0,64,0.00,,,0.00,,2013-10-23 22:43:00,
2013-10-23 18:54:00,49.0,38.0,29.51,South,180,0.0,1.0,66,0.00,,,0.00,,2013-10-23 22:54:00,
2013-10-23 19:12:00,48.0,39.0,29.50,South,180,0.0,0.0,70,0.00,,,0.00,,2013-10-23 23:12:00,
2013-10-23 19:23:00,47.0,38.0,29.49,South,180,0.0,0.0,70,0.00,,,0.00,,2013-10-23 23:23:00,
2013-10-23 19:42:00,46.0,38.0,29.50,South,180,0.0,1.0,74,0.00,,,0.00,,2013-10-23 23:42:00,
2013-10-23 19:52:00,45.0,37.0,29.50,South,180,0.0,0.0,74,0.00,,,0.00,,2013-10-23 23:52:00,
2013-10-23 20:12:00,44.0,37.0,29.51,South,180,0.0,2.0,77,0.00,,,0.00,,2013-10-24 00:12:00,
2013-10-23 20:22:00,44.0,38.0,29.50,South,180,0.0,0.0,79,0.00,,,0.00,,2013-10-24 00:22:00,
2013-10-23 20:42:00,44.0,38.0,29.49,South,180,0.0,0.0,79,0.00,,,0.00,,2013-10-24 00:42:00,
2013-10-23 20:52:00,43.0,37.0,29.49,South,180,0.0,0.0,80,0.00,,,0.00,,2013-10-24 00:52:00,
2013-10-23 21:11:00,43.0,38.0,29.50,South,180,0.0,2.0,81,0.00,,,0.00,,2013-10-24 01:11:00,
2013-10-23 21:22:00,43.0,38.0,29.50,South,180,0.0,1.0,82,0.00,,,0.00,,2013-10-24 01:22:00,
2013-10-23 21:42:00,43.0,38.0,29.50,South,180,0.0,0.0,82,0.00,,,0.00,,2013-10-24 01:42:00,
2013-10-23 21:52:00,43.0,38.0,29.51,South,180,0.0,0.0,82,0.00,,,0.00,,2013-10-24 01:52:00,
2013-10-23 22:12:00,43.0,38.0,29.51,ESE,106,0.0,3.0,83,0.00,,,0.00,,2013-10-24 02:12:00,
2013-10-23 22:22:00,43.0,37.0,29.51,NNW,344,0.0,2.0,80,0.00,,,0.00,,2013-10-24 02:22:00,
2013-10-23 23:12:00,45.0,36.0,29.52,NNW,346,0.0,3.0,71,0.00,,,0.00,,2013-10-24 03:12:00,
2013-10-23 23:22:00,46.0,36.0,29.52,WNW,298,1.0,4.0,68,0.00,,,0.00,,2013-10-24 03:22:00,
2013-10-23 23:44:00,46.0,36.0,29.52,NNW,327,0.0,4.0,69,0.00,,,0.00,,2013-10-24 03:44:00,
2013-10-23 23:55:00,46.0,36.0,29.53,NNE,22,0.0,2.0,67,0.00,,,0.00,,2013-10-24 03:55:00,